• Em Portugal
  • Lista de países
  • Para 7 dias
  • Temperatura da água
  • Mapas de satélite
  • Mapa do tempo
  • Widgets de tempo
  • user-avatar
    Iniciar Sessão

    Previsão horária em Vanadzor

    Hoje, 25 Novembro, Sábado

    Tempo Temperatura Precipitação Vento Pressão Humidade
    00:00 -8°C° 0 mm 2 m/s 633 mmHg 65%
    01:00 -8°C° 0 mm 2 m/s 633 mmHg 66%
    02:00 -8°C° 0 mm 2 m/s 634 mmHg 67%
    03:00 -7°C° 0 mm 2 m/s 634 mmHg 73%
    04:00 -7°C° 0,2 mm 2 m/s 634 mmHg 76%
    05:00 -7°C° 0,2 mm 2 m/s 635 mmHg 78%
    06:00 -7°C° 0,2 mm 2 m/s 635 mmHg 81%
    07:00 -6°C° 0,1 mm 2 m/s 636 mmHg 79%
    08:00 -6°C° 0,1 mm 2 m/s 637 mmHg 77%
    09:00 -5°C° 0,1 mm 2 m/s 637 mmHg 75%
    10:00 -4°C° 0 mm 2 m/s 638 mmHg 70%
    11:00 -4°C° 0 mm 2 m/s 638 mmHg 65%
    12:00 -3°C° 0 mm 2 m/s 638 mmHg 60%
    13:00 -3°C° 0 mm 2 m/s 638 mmHg 60%
    14:00 -3°C° 0 mm 2 m/s 638 mmHg 60%
    15:00 -3°C° 0 mm 2 m/s 638 mmHg 60%
    16:00 -4°C° 0 mm 2 m/s 638 mmHg 63%
    17:00 -4°C° 0 mm 1 m/s 638 mmHg 67%
    18:00 -6°C° 0 mm 1 m/s 638 mmHg 70%
    19:00 -6°C° 0 mm 1 m/s 638 mmHg 70%
    20:00 -7°C° 0 mm 2 m/s 638 mmHg 69%
    21:00 -8°C° 0 mm 2 m/s 638 mmHg 68%
    22:00 -8°C° 0 mm 2 m/s 638 mmHg 68%
    23:00 -8°C° 0 mm 2 m/s 638 mmHg 68%

    Amanhã, 26 Novembro, Domingo

    Tempo Temperatura Precipitação Vento Pressão Humidade
    00:00 -8°C° 0 mm 2 m/s 638 mmHg 68%
    01:00 -8°C° 0 mm 2 m/s 638 mmHg 68%
    02:00 -8°C° 0 mm 2 m/s 638 mmHg 68%
    03:00 -8°C° 0 mm 2 m/s 638 mmHg 68%
    04:00 -8°C° 0 mm 2 m/s 638 mmHg 69%
    05:00 -8°C° 0 mm 2 m/s 638 mmHg 69%
    06:00 -8°C° 0 mm 2 m/s 638 mmHg 69%
    07:00 -7°C° 0 mm 2 m/s 638 mmHg 67%
    08:00 -6°C° 0 mm 2 m/s 638 mmHg 65%
    09:00 -5°C° 0 mm 2 m/s 638 mmHg 63%
    10:00 -4°C° 0 mm 2 m/s 638 mmHg 60%
    11:00 -2°C° 0 mm 2 m/s 638 mmHg 57%
    12:00 -1°C° 0 mm 2 m/s 637 mmHg 54%
    13:00 -1°C° 0 mm 2 m/s 637 mmHg 54%
    14:00 -1°C° 0 mm 2 m/s 636 mmHg 55%
    15:00 -1°C° 0 mm 2 m/s 636 mmHg 56%
    16:00 -2°C° 0 mm 2 m/s 636 mmHg 58%
    17:00 -4°C° 0 mm 2 m/s 636 mmHg 60%
    18:00 -5°C° 0 mm 2 m/s 636 mmHg 63%
    19:00 -5°C° 0 mm 2 m/s 636 mmHg 63%
    20:00 -5°C° 0 mm 2 m/s 636 mmHg 63%
    21:00 -5°C° 0 mm 2 m/s 636 mmHg 63%
    22:00 -5°C° 0 mm 2 m/s 636 mmHg 64%
    23:00 -5°C° 0 mm 2 m/s 636 mmHg 65%

    Depois de amanhã, 27 Novembro, Segunda-feira

    Tempo Temperatura Precipitação Vento Pressão Humidade
    00:00 -5°C° 0 mm 2 m/s 636 mmHg 65%
    01:00 -5°C° 0 mm 2 m/s 636 mmHg 66%
    02:00 -5°C° 0 mm 2 m/s 635 mmHg 67%
    03:00 -5°C° 0 mm 2 m/s 635 mmHg 67%
    04:00 -6°C° 0 mm 2 m/s 635 mmHg 68%
    05:00 -6°C° 0 mm 2 m/s 635 mmHg 69%
    06:00 -6°C° 0 mm 2 m/s 635 mmHg 69%
    07:00 -5°C° 0 mm 2 m/s 635 mmHg 68%
    08:00 -3°C° 0 mm 2 m/s 636 mmHg 66%
    09:00 -2°C° 0 mm 2 m/s 636 mmHg 65%
    10:00 -1°C° 0 mm 2 m/s 636 mmHg 63%
    11:00 +1°C° 0 mm 2 m/s 636 mmHg 60%
    12:00 +3°C° 0 mm 2 m/s 636 mmHg 58%
    13:00 +2°C° 0 mm 2 m/s 635 mmHg 58%
    14:00 +2°C° 0 mm 2 m/s 635 mmHg 59%
    15:00 +2°C° 0 mm 2 m/s 635 mmHg 59%
    16:00 +1°C° 0 mm 2 m/s 635 mmHg 63%
    17:00 -2°C° 0 mm 2 m/s 635 mmHg 66%
    18:00 -3°C° 0 mm 2 m/s 635 mmHg 69%
    19:00 -3°C° 0 mm 2 m/s 635 mmHg 69%
    20:00 -3°C° 0 mm 2 m/s 635 mmHg 69%
    21:00 -2°C° 0 mm 1 m/s 636 mmHg 69%
    22:00 -2°C° 0 mm 1 m/s 636 mmHg 69%
    23:00 -2°C° 0 mm 1 m/s 636 mmHg 69%

    28 Novembro, Terça-feira

    Tempo Temperatura Precipitação Vento Pressão Humidade
    00:00 -2°C° 0 mm 1 m/s 636 mmHg 69%
    01:00 -2°C° 0 mm 1 m/s 636 mmHg 70%
    02:00 -2°C° 0 mm 1 m/s 636 mmHg 70%
    03:00 -3°C° 0 mm 1 m/s 636 mmHg 70%
    04:00 -3°C° 0 mm 1 m/s 636 mmHg 70%
    05:00 -3°C° 0 mm 1 m/s 636 mmHg 70%
    06:00 -3°C° 0 mm 1 m/s 636 mmHg 70%
    07:00 -2°C° 0 mm 1 m/s 636 mmHg 68%
    08:00 -1°C° 0 mm 1 m/s 637 mmHg 65%
    09:00 0°C° 0 mm 1 m/s 637 mmHg 63%
    10:00 +2°C° 0 mm 1 m/s 637 mmHg 61%
    11:00 +3°C° 0 mm 1 m/s 637 mmHg 58%
    12:00 +4°C° 0 mm 1 m/s 637 mmHg 55%
    13:00 +4°C° 0 mm 1 m/s 636 mmHg 56%
    14:00 +4°C° 0 mm 1 m/s 636 mmHg 56%
    15:00 +4°C° 0 mm 1 m/s 636 mmHg 57%
    16:00 +2°C° 0 mm 1 m/s 636 mmHg 59%
    17:00 +1°C° 0 mm 1 m/s 636 mmHg 62%
    18:00 0°C° 0 mm 1 m/s 636 mmHg 65%
    19:00 0°C° 0 mm 1 m/s 636 mmHg 64%
    20:00 0°C° 0 mm 1 m/s 636 mmHg 63%
    21:00 0°C° 0 mm 1 m/s 636 mmHg 63%
    22:00 0°C° 0 mm 1 m/s 637 mmHg 63%
    23:00 0°C° 0 mm 1 m/s 637 mmHg 64%

    29 Novembro, Quarta-feira

    Tempo Temperatura Precipitação Vento Pressão Humidade
    00:00 -1°C° 0 mm 1 m/s 637 mmHg 65%
    01:00 -1°C° 0 mm 1 m/s 637 mmHg 66%
    02:00 -1°C° 0 mm 1 m/s 637 mmHg 66%
    03:00 -1°C° 0 mm 1 m/s 637 mmHg 67%
    04:00 -1°C° 0 mm 1 m/s 636 mmHg 68%
    05:00 -1°C° 0 mm 1 m/s 636 mmHg 69%
    06:00 -2°C° 0 mm 1 m/s 636 mmHg 69%
    07:00 -1°C° 0 mm 1 m/s 637 mmHg 67%
    08:00 0°C° 0 mm 1 m/s 637 mmHg 66%
    09:00 +1°C° 0 mm 1 m/s 637 mmHg 64%
    10:00 +2°C° 0 mm 2 m/s 637 mmHg 62%
    11:00 +3°C° 0 mm 2 m/s 637 mmHg 60%
    12:00 +4°C° 0 mm 2 m/s 637 mmHg 59%
    13:00 +4°C° 0 mm 2 m/s 636 mmHg 60%
    14:00 +4°C° 0 mm 2 m/s 636 mmHg 61%
    15:00 +4°C° 0 mm 2 m/s 636 mmHg 63%
    16:00 +3°C° 0,1 mm 2 m/s 636 mmHg 67%
    17:00 +2°C° 0,1 mm 2 m/s 636 mmHg 71%
    18:00 +2°C° 0,1 mm 1 m/s 636 mmHg 75%
    19:00 +2°C° 0,1 mm 1 m/s 636 mmHg 76%
    20:00 +2°C° 0,1 mm 1 m/s 636 mmHg 77%
    21:00 +2°C° 0,1 mm 1 m/s 636 mmHg 78%
    22:00 +2°C° 0,1 mm 1 m/s 636 mmHg 79%
    23:00 +2°C° 0,1 mm 1 m/s 636 mmHg 80%

    30 Novembro, Quinta-feira

    Tempo Temperatura Precipitação Vento Pressão Humidade
    00:00 +2°C° 0,1 mm 1 m/s 635 mmHg 80%
    01:00 +2°C° 0,2 mm 1 m/s 635 mmHg 81%
    02:00 +1°C° 0,2 mm 1 m/s 635 mmHg 82%
    03:00 +1°C° 0,2 mm 1 m/s 635 mmHg 83%
    04:00 +1°C° 0,2 mm 1 m/s 635 mmHg 83%
    05:00 +1°C° 0,2 mm 1 m/s 635 mmHg 84%
    06:00 +1°C° 0,2 mm 1 m/s 635 mmHg 84%
    07:00 +2°C° 0,4 mm 1 m/s 635 mmHg 84%
    08:00 +2°C° 0,4 mm 1 m/s 636 mmHg 84%
    09:00 +3°C° 0,4 mm 1 m/s 636 mmHg 85%
    10:00 +3°C° 0,5 mm 1 m/s 636 mmHg 84%
    11:00 +4°C° 0,5 mm 1 m/s 636 mmHg 84%
    12:00 +4°C° 0,5 mm 1 m/s 636 mmHg 83%
    13:00 +4°C° 0,5 mm 1 m/s 636 mmHg 84%
    14:00 +4°C° 0,5 mm 1 m/s 636 mmHg 85%
    15:00 +4°C° 0,5 mm 1 m/s 636 mmHg 85%
    16:00 +4°C° 0,4 mm 1 m/s 636 mmHg 86%
    17:00 +3°C° 0,4 mm 1 m/s 637 mmHg 87%
    18:00 +3°C° 0,4 mm 1 m/s 637 mmHg 88%
    19:00 +3°C° 0,3 mm 1 m/s 637 mmHg 88%
    20:00 +3°C° 0,3 mm 1 m/s 638 mmHg 89%
    21:00 +2°C° 0,3 mm 1 m/s 638 mmHg 89%
    22:00 +2°C° 0,1 mm 1 m/s 638 mmHg 89%
    23:00 +1°C° 0,1 mm 1 m/s 638 mmHg 90%
    Mostrar mais